Voltar ao catálogo

STARLINK-33982

AtivoComunicaçõesVLEO
NORAD 63707·PAYLOAD·🇺🇸 United States

Lançado Apr 28, 2025 de Vandenberg Space Force Base

Loading…

Próximas Passagens (próximas 24 horas)

TLE

AtualizadoSource: CelesTrak SupGP

Época: Sep 15, 2026, 03:34 UTC

1 63707C 25087L   26258.14909722 -.00020018  00000+0 -59161-3 0  2587
2 63707  53.1594  58.3958 0001053  91.8073 237.4486 15.34391369    16

Acompanhe STARLINK-33982 em tempo real com AllMySat

Download on the App Store